Gwinn, MI

5:30 PM EST on December 07, 2016 (GMT -0500)
Sawyer International

Weather History for KSAW - February, 2014

Change the Weather History Date:

Wednesday, February 26, 2014

  Actual Average (KESC) Record (KESC)
Temperature  
Mean Temperature -2 °F -  
Max Temperature 10 °F 31 °F 45 °F (1976)
Min Temperature -13 °F 10 °F -18 °F (1991)
Degree Days  
Heating Degree Days 68    
Moisture  
Dew Point -10 °F    
Average Humidity 70    
Maximum Humidity 85    
Minimum Humidity 37    
Precipitation  
Precipitation 0.00 in - - ()
Sea Level Pressure  
Sea Level Pressure 29.71 in    
Wind  
Wind Speed 9 mph (West)    
Max Wind Speed 23 mph    
Max Gust Speed 31 mph    
Visibility 8 miles    
Events Snow    
Averages and records for this station are not official NWS values.
T = Trace of Precipitation, MM = Missing Value Source: NWS Daily Summary

Daily Weather History Graph

Daily Weather History Graph

Search for Another Location

Airport or City:

Trip Planner

Search our weather history database for the weather conditions in past years. The results will help you decide how hot, cold, wet, or windy it might be!

Date:

Astronomy

Feb. 26, 2014 Rise Set
Actual Time 7:34 AM EST 6:31 PM EST
Civil Twilight 7:03 AM EST 7:01 PM EST
Nautical Twilight 6:29 AM EST 7:36 PM EST
Astronomical Twilight 5:54 AM EST 8:11 PM EST
Moon 5:27 AM EST (2/26) 3:39 PM EST (2/26)
Length of Visible Light 11h 57m
Length of Day
10h 57m
Waning Crescent, 10% of the Moon is Illuminated
Feb 26
Waning Crescent
Mar 1
New
Mar 8
First Quarter
Mar 16
Full
Mar 23
Last Quarter

Hourly Weather History & Observations

Time (EST) Temp. Windchill Dew Point Humidity Pressure Visibility Wind Dir Wind Speed Gust Speed Precip Events Conditions
12:16 AM -2.6 °F -19.4 °F -10.3 °F 70% 29.97 in 10.0 mi NW 10.4 mph - N/A   Clear
12:37 AM -2.7 °F -17.5 °F -10.5 °F 70% 29.97 in 10.0 mi NW 8.1 mph - N/A   Clear
12:56 AM -3.5 °F -18.4 °F -10.7 °F 71% 29.97 in 10.0 mi WNW 8.1 mph - N/A   Clear
1:16 AM -3.5 °F -17.1 °F -11.0 °F 70% 29.97 in 10.0 mi NW 6.9 mph - N/A   Clear
1:37 AM -4.2 °F -14.8 °F -11.6 °F 71% 29.97 in 10.0 mi WNW 4.6 mph - N/A   Clear
1:56 AM -4.9 °F -18.8 °F -12.1 °F 71% 29.97 in 10.0 mi WNW 6.9 mph - N/A   Clear
2:17 AM -5.3 °F -17.8 °F -13.0 °F 69% 29.97 in 10.0 mi NW 5.8 mph - N/A   Clear
2:36 AM -5.8 °F -16.7 °F -13.5 °F 69% 29.97 in 10.0 mi WNW 4.6 mph - N/A   Clear
2:56 AM -6.2 °F -17.1 °F -14.1 °F 69% 29.97 in 10.0 mi WNW 4.6 mph - N/A   Clear
3:17 AM -6.9 °F -15.7 °F -14.6 °F 69% 29.96 in 10.0 mi West 3.5 mph - N/A   Clear
3:36 AM -7.8 °F -19.0 °F -14.6 °F 72% 29.96 in 10.0 mi West 4.6 mph - N/A   Clear
3:57 AM -8.5 °F -21.6 °F -14.8 °F 74% 29.95 in 10.0 mi WSW 5.8 mph - N/A   Clear
4:16 AM -8.1 °F -17.1 °F -14.4 °F 74% 29.94 in 10.0 mi WSW 3.5 mph - N/A   Clear
4:36 AM -11.0 °F -24.6 °F -16.6 °F 76% 29.93 in 10.0 mi SW 5.8 mph - N/A   Clear
4:57 AM -11.0 °F -22.8 °F -15.9 °F 79% 29.93 in 10.0 mi SW 4.6 mph - N/A   Clear
5:16 AM -11.7 °F -25.5 °F -16.2 °F 80% 29.92 in 10.0 mi SW 5.8 mph - N/A   Clear
5:37 AM -11.6 °F -25.3 °F -16.2 °F 80% 29.92 in 10.0 mi SW 5.8 mph - N/A   Clear
5:56 AM -11.2 °F -24.8 °F -15.9 °F 80% 29.90 in 10.0 mi SSW 5.8 mph - N/A   Clear
6:50 AM -13.0 °F -27.0 °F -18.4 °F 77% 29.89 in 10.0 mi SSW 5.8 mph - N/A   Clear
7:55 AM -13.0 °F -30.0 °F -16.6 °F 84% 29.85 in 10.0 mi SW 8.1 mph - N/A   Clear
8:50 AM -9.4 °F -30.6 °F -14.8 °F 77% 29.82 in 10.0 mi WSW 13.8 mph - N/A   Scattered Clouds
9:55 AM -5.8 °F -23.4 °F -14.8 °F 65% 29.76 in 10.0 mi SW 10.4 mph - N/A   Mostly Cloudy
10:50 AM -4.0 °F -24.5 °F -13.0 °F 65% 29.70 in 10.0 mi SW 15.0 mph - N/A   Clear
11:50 AM -0.4 °F -22.8 °F -13.0 °F 55% 29.64 in 10.0 mi SW 20.7 mph - N/A   Clear
12:55 PM 3.2 °F -18.1 °F -13.0 °F 47% 29.56 in 10.0 mi SW 20.7 mph 26.5 mph N/A   Overcast
1:50 PM 6.8 °F -10.7 °F -13.0 °F 40% 29.50 in 10.0 mi WSW 15.0 mph - N/A   Overcast
2:50 PM 8.6 °F -11.9 °F -13.0 °F 37% 29.44 in 10.0 mi SW 23.0 mph 31.1 mph N/A   Overcast
3:55 PM 8.6 °F -11.0 °F -5.8 °F 52% 29.40 in 5.0 mi West 20.7 mph 29.9 mph N/A   Haze
4:50 PM 8.6 °F -10.5 °F -2.2 °F 62% 29.40 in 4.0 mi WSW 19.6 mph 29.9 mph N/A Snow Blowing Snow
5:11 PM 6.8 °F -13.4 °F -2.2 °F 67% 29.40 in 2.5 mi WSW 20.7 mph 24.2 mph N/A   Haze
5:46 PM 6.8 °F -10.0 °F 1.4 °F 79% 29.40 in 1.8 mi WSW 13.8 mph 19.6 mph N/A Snow Light Snow
6:45 PM 6.8 °F -7.8 °F 1.4 °F 79% 29.40 in 3.0 mi WSW 10.4 mph - N/A Snow Light Snow
7:45 PM 6.8 °F -2.0 °F 1.4 °F 79% 29.40 in 4.0 mi WNW 4.6 mph - N/A Snow Light Snow
8:45 PM 6.8 °F -3.5 °F 3.2 °F 85% 29.40 in 1.0 mi NNW 5.8 mph - N/A Snow Light Snow
9:45 PM 5.0 °F -13.6 °F -2.2 °F 72% 29.41 in 7.0 mi North 16.1 mph 21.9 mph N/A   Overcast
10:17 PM 3.6 °F -11.8 °F -4.9 °F 68% 29.43 in 10.0 mi NNW 10.4 mph - N/A   Overcast
10:37 PM 3.0 °F -13.3 °F -4.0 °F 73% 29.43 in 7.0 mi NNW 11.5 mph - N/A   Overcast
10:56 PM 2.7 °F -12.0 °F -2.4 °F 79% 29.44 in 2.5 mi NNW 9.2 mph - N/A Snow Light Snow
11:16 PM 2.3 °F -8.8 °F -2.7 °F 79% 29.44 in 4.0 mi NNW 5.8 mph - N/A Snow Light Snow
11:37 PM 2.3 °F -15.7 °F -2.9 °F 79% 29.45 in 2.0 mi North 13.8 mph 19.6 mph N/A Snow Light Snow
11:56 PM 1.8 °F -14.9 °F -4.5 °F 75% 29.46 in 3.0 mi North 11.5 mph 19.6 mph N/A Snow Light Snow